| time (UTC) | temp C | wind direction | speed KPH | gust KPH | rain 1hr cm | rain 24hr cm | rain mn cm | humidity % | barometer mb |
| 20260505153005 | 15 | 18 | 1.6 | 8.0 | 0.00 | 0.00 | 0.00 | 68 | 1010.0 |
| 20260505150505 | 15 | 18 | 4.8 | 11.3 | 0.00 | 0.00 | 0.00 | 68 | 1010.1 |
| 20260505140505 | 15 | 16 | 4.8 | 11.3 | 0.00 | 0.00 | 0.00 | 68 | 1010.2 |
| 20260505123505 | 15 | 10 | 3.2 | 11.3 | 0.00 | 0.00 | 0.00 | 69 | 1010.6 |
| 20260505120504 | 15 | 5 | 4.8 | 16.1 | 0.00 | 0.00 | 0.00 | 71 | 1010.6 |
| 20260505113504 | 14 | 27 | 8.0 | 14.5 | 0.00 | 0.00 | 0.00 | 73 | 1010.8 |
| 20260505113005 | 13 | 45 | 1.6 | 14.5 | 0.00 | 0.00 | 0.00 | 74 | 1010.8 |
| 20260505110504 | 13 | 56 | 1.6 | 14.5 | 0.00 | 0.00 | 0.00 | 75 | 1011.0 |
| 20260505100505 | 12 | 17 | 1.6 | 11.3 | 0.00 | 0.00 | 0.00 | 79 | 1011.2 |
| 20260505100005 | 12 | 16 | 3.2 | 8.0 | 0.00 | 0.00 | 0.00 | 78 | 1011.2 |
| 20260505083005 | 12 | 21 | 1.6 | 11.3 | 0.00 | 0.00 | 0.00 | 80 | 1011.6 |
| 20260505080005 | 12 | 10 | 4.8 | 19.3 | 0.00 | 0.00 | 0.00 | 81 | 1011.6 |
| 20260505073505 | 12 | 24 | 8.0 | 19.3 | 0.00 | 0.00 | 0.00 | 81 | 1011.5 |
| 20260505073004 | 12 | 5 | 6.4 | 19.3 | 0.00 | 0.00 | 0.00 | 82 | 1011.5 |
| 20260505070504 | 12 | 27 | 8.0 | 14.5 | 0.00 | 0.00 | 0.00 | 83 | 1011.6 |
| 20260505063504 | 11 | 35 | 1.6 | 8.0 | 0.00 | 0.00 | 0.00 | 86 | 1011.7 |
| 20260505063004 | 11 | 35 | 3.2 | 4.8 | 0.00 | 0.00 | 0.00 | 87 | 1011.7 |
| 20260505060504 | 11 | 35 | 1.6 | 4.8 | 0.00 | 0.00 | 0.00 | 88 | 1011.6 |
| 20260505053504 | 10 | 35 | 3.2 | 4.8 | 0.00 | 0.00 | 0.00 | 89 | 1011.7 |
| 20260505050505 | 10 | 35 | 3.2 | 8.0 | 0.00 | 0.00 | 0.00 | 88 | 1011.7 |
| 20260505033504 | 10 | 35 | 0.0 | 0.0 | 0.00 | 0.00 | 0.00 | 89 | 1011.9 |
| 20260505030005 | 10 | 35 | 0.0 | 0.0 | 0.00 | 0.00 | 0.00 | 88 | 1012.0 |
| 20260505023504 | 10 | 35 | 0.0 | 3.2 | 0.00 | 0.00 | 0.00 | 87 | 1012.0 |
| 20260505013004 | 11 | 35 | 1.6 | 4.8 | 0.00 | 0.00 | 0.00 | 86 | 1012.4 |
| 20260505010504 | 11 | 35 | 0.0 | 4.8 | 0.00 | 0.00 | 0.00 | 84 | 1012.4 |
| 20260505003504 | 11 | 35 | 0.0 | 4.8 | 0.00 | 0.00 | 0.00 | 84 | 1012.7 |
| 20260504233504 | 12 | 35 | 4.8 | 11.3 | 0.00 | 0.00 | 0.00 | 84 | 1012.7 |
| 20260504233005 | 12 | 35 | 3.2 | 11.3 | 0.00 | 0.00 | 0.00 | 84 | 1012.7 |
| 20260504223005 | 12 | 36 | 3.2 | 11.3 | 0.00 | 0.00 | 0.00 | 82 | 1012.9 |
| 20260504220504 | 12 | 35 | 6.4 | 9.7 | 0.00 | 0.00 | 0.00 | 83 | 1013.1 |
| 20260504220004 | 12 | 35 | 3.2 | 9.7 | 0.00 | 0.00 | 0.00 | 83 | 1013.1 |
| 20260504203505 | 12 | 35 | 0.0 | 0.0 | 0.00 | 0.00 | 0.00 | 83 | 1013.1 |
| 20260504190505 | 13 | 35 | 0.0 | 8.0 | 0.00 | 0.00 | 0.00 | 80 | 1012.5 |
| 20260504183505 | 14 | 35 | 0.0 | 12.9 | 0.00 | 0.00 | 0.00 | 79 | 1012.2 |
| 20260504180504 | 14 | 35 | 0.0 | 9.7 | 0.00 | 0.00 | 0.00 | 78 | 1012.2 |
| 20260504180004 | 14 | 35 | 3.2 | 9.7 | 0.00 | 0.00 | 0.00 | 78 | 1012.2 |
| 20260504173504 | 15 | 35 | 1.6 | 8.0 | 0.00 | 0.00 | 0.00 | 77 | 1012.1 |
| 20260504170504 | 15 | 32 | 0.0 | 11.3 | 0.00 | 0.00 | 0.00 | 76 | 1012.0 |